Weather in Kerlayurt

Russia / Chechen Republic     43°23′54″N   45°18′20″E
temp.,
°C
wind,
m/s
gust,
m/s
humid.,
%
clouds,
%
prec.,
mm/h
press.,
hPa
HPBL,
m
18 april, sun
sun1800:00+11nw3581100 0.0 1022221
03:00+10n1188100 0.0 102110
06:00+10se2288100 0.0 102093
09:00+14e4568100 0.0 1018644
12:00+18ene435498 0.0 10161118
15:00+20e445017 0.2 10151137
18:00+17e3564100 0.3 1016120
21:00+13sse2288100 0.4 101731
19 april, mon
mon1900:00+12ese2286100 0.0 101719
03:00+12sse1182100 0.0 101610
06:00+13nw1080100 0.0 101611
09:00+17nne325843 0.0 1017481
12:00+21e44455 0.0 1015973
15:00+22e674367 0.0 10141444
18:00+18e585458 0.0 1014308
21:00+13ese236471 0.0 101435
20 april, tue
tue2000:00+12ese116532 0.0 101313
03:00+12n1167100 0.0 101210
06:00+12se3370100 0.0 101165
09:00+18ese5856100 0.0 1008332
12:00+22e6845100 0.0 1005555
15:00+26ne3241100 0.0 1005769
18:00+18ene796495 0.0 1005354
21:00+14sse2286100 0.7 100869
21 april, wed
wed2100:00+13nw2592100 0.3 1010223
03:00+13w7129087 0.3 1013592
06:00+12wnw61090100 0.1 1016683
09:00+12wnw61083100 0.2 1019812
12:00+12nnw4774100 0.4 1020970
15:00+11n3478100 0.4 1021617
18:00+10wnw1283100 0.0 1023165
21:00+10wnw2281100 0.1 102379
22 april, thu
thu2200:00+10wnw2281100 0.0 102354
03:00+9nw2384100 0.0 1022116
06:00+9w1186100 0.0 102259
09:00+10nw2385100 0.0 1023242
12:00+9wnw3590100 0.0 1023308
15:00+10wnw3487100 0.1 1023320
18:00+10w2486100 0.0 1024199
21:00+10wnw2290100 0.1 102473